Weather observations for the past three days for
Anchorage, Lake Hood Seaplane Base
Imperial (Metric)
Date Time (akdt) Wind (mph) Vis. (mi.) Weather Sky Cond. Temperature (ºF) Relative Humidity Wind Chill (°F) Heat Index (°F) Pressure Precipitation (in)
Air Dwpt 6 hour altimeter (in) sea level (mb) 1 hr 3 hr 6 hr
Max. Min.
23 21:53 NW 5 10.00 Overcast OVC028 0 0 0% 30 0.0
23 20:53 NW 5 10.00 Overcast OVC030 0 0 0% 30 0.0
23 19:53 S 5 10.00 Overcast OVC030 0 0 0% 30.01 0.0
23 18:53 Calm 10.00 Overcast FEW020 OVC031 0 0 0% 30.02 0.0
23 17:53 W 6 10.00 Overcast BKN021 BKN026 OVC034 0 0 0% 30.02 0.0
23 15:53 NW 6 10.00 Overcast OVC025 0 0 0% 30.05 0.0
23 14:53 W 5 10.00 Overcast OVC041 0 0 0% 30.06 0.0
23 12:53 NW 6 10.00 Overcast OVC027 0 0 0% 30.08 0.0
23 11:53 W 5 10.00 Overcast BKN029 OVC041 0 0 0% 30.1 0.0
23 10:53 W 3 10.00 Overcast OVC030 0 0 0% 30.1 0.0
23 09:53 NW 5 10.00 Overcast FEW023 OVC032 57 54 90% 30.11 1019.6
23 08:53 NW 7 10.00 Overcast OVC028 57 53.1 87% 30.11 1019.8
23 06:53 NW 7 10.00 Overcast OVC009 0 0 0% 30.13 0.0
23 05:53 NW 5 10.00 Overcast OVC007 57 55 93% 30.12 1020.1
23 04:53 NW 3 10.00 Overcast FEW007 OVC024 0 0 0% 30.12 0.0
23 03:53 Calm 10.00 Light Rain FEW003 SCT008 OVC025 0 0 0% 30.12 0.0 0.01 0.07
23 02:53 N 5 10.00 Light Rain FEW013 OVC025 57 55 93% 30.12 1019.9 0.02
23 01:53 SW 3 10.00 Light Rain BKN033 BKN060 OVC090 57.9 55 90% 30.11 1019.6
23 00:53 S 3 10.00 Overcast BKN033 OVC048 57 55 93% 30.1 1019.4 0.04
22 23:53 S 6 10.00 Overcast BKN046 OVC110 57 55 93% 30.1 1019.3 0.01
22 22:53 S 6 10.00 Light Rain BKN045 OVC100 57 55 93% 30.09 1019.1 0.03
22 21:53 S 6 9.00 Light Rain BKN030 OVC042 57.9 55 64 57.9 90% 30.09 1018.9 0.01 0.05
22 20:53 S 8 10.00 Light Rain BKN044 BKN090 OVC110 59 54 83% 30.07 1018.3
22 19:53 S 8 10.00 Overcast OVC080 59 55 87% 30.06 1018.0 0.02
22 18:53 S 9 G 17 10.00 Light Rain FEW055 OVC100 59 55 87% 30.05 1017.7 0.02 0.02
22 17:53 S 10 G 20 10.00 Light Rain OVC047 61 54 78% 30.04 1017.4
22 16:53 S 10 G 18 10.00 Light Rain OVC100 63 53.1 70% 30.03 1016.9
22 15:53 S 9 G 18 10.00 Overcast OVC110 64 53.1 68 62.1 68% 30.01 1016.4
22 14:53 S 10 G 24 10.00 Fair CLR 66 54 65% 30 1016.1
22 13:53 S 13 G 26 10.00 Fair CLR 66 54 65% 29.99 1015.5
22 12:53 S 13 G 21 10.00 Fair CLR 66 54 65% 29.98 1015.4
22 11:53 S 8 10.00 A Few Clouds FEW110 66 54 65% 29.98 1015.4
22 10:53 S 8 10.00 Overcast OVC110 63 52 68% 29.99 1015.7
22 09:53 S 7 10.00 Fair CLR 62.1 53.1 62.1 57 73% 30 1015.8
22 08:53 S 6 10.00 A Few Clouds FEW120 61 54 78% 30 1016.0
22 07:53 S 5 10.00 Fair CLR 59 54 83% 30.01 1016.2
22 06:53 S 6 10.00 Fair CLR 59 54 83% 30 1015.8
22 05:53 S 7 10.00 Fair CLR 57.9 54 87% 29.99 1015.7
22 04:53 S 5 10.00 Fair CLR 57.9 53.1 84% 29.99 1015.6
22 02:53 Calm 10.00 Fair CLR 60.1 53.1 78% 30.01 1016.2
22 01:53 Calm 10.00 Fair CLR 61 50 67% 30.01 1016.4
22 00:53 Calm 10.00 A Few Clouds FEW110 61 52 72% 30.01 1016.4
21 23:53 Calm 10.00 Fair CLR 62.1 53.1 73% 30.01 1016.4
21 22:53 Calm 10.00 Fair CLR 62.1 53.1 73% 30.02 1016.7
21 21:53 Calm 10.00 Fair CLR 66.9 53.1 71.1 66 61% 30.02 1016.7
21 20:53 NW 6 10.00 Fair CLR 66.9 51.1 57% 30.03 1016.9
21 19:53 NW 5 10.00 Fair CLR 66.9 52 59% 30.04 1017.3
21 18:53 NW 5 10.00 Fair CLR 70 52 53% 30.05 1017.7
21 17:53 NW 6 10.00 Fair CLR 70 55 59% 30.06 1018.1
21 16:53 NW 6 10.00 Fair CLR 69.1 54 59% 30.07 1018.5
21 15:53 NW 7 10.00 Fair CLR 68 54 69.1 60.1 61% 30.09 1019.0
21 14:53 NW 7 10.00 Fair CLR 66.9 53.1 61% 30.1 1019.5
21 13:53 NW 6 10.00 Fair CLR 66.9 53.1 61% 30.12 1020.0
21 12:53 Vrbl 3 10.00 Fair CLR 64 53.1 68% 30.14 1020.6
21 11:53 NW 5 10.00 Fair CLR 62.1 53.1 73% 30.15 1021.1
21 10:53 Calm 10.00 Fair CLR 62.1 52 70% 30.16 1021.5
21 09:53 Calm 10.00 Partly Cloudy SCT014 60.1 52 60.1 55.9 75% 30.17 1021.7
21 08:53 W 6 10.00 Overcast OVC013 59 52 78% 30.18 1021.9
21 07:53 S 5 10.00 A Few Clouds FEW012 57 52 83% 30.18 1021.8
21 06:53 Calm 10.00 Fair CLR 57 51.1 81% 30.18 1021.8
21 05:53 Calm 10.00 Fair CLR 55.9 51.1 84% 30.18 1021.9
21 04:53 S 3 10.00 Fair CLR 55.9 51.1 84% 30.19 1022.2
21 03:53 S 6 10.00 Fair CLR 55.9 51.1 69.1 55.9 84% 30.19 1022.2
21 02:53 S 5 10.00 Fair CLR 57 51.1 81% 30.2 1022.5
21 01:53 SW 6 10.00 Fair CLR 59 51.1 75% 30.19 1022.3
21 00:53 SW 3 10.00 Fair CLR 61 50 67% 30.19 1022.2
20 23:53 SW 5 10.00 Fair CLR 63 50 63% 30.18 1021.9
20 22:53 Vrbl 6 10.00 Fair CLR 66 48 52% 30.16 1021.5
Date Time (akdt) Wind (mph) Vis. (mi.) Weather Sky Cond. Air Dwpt Max. Min. Relative Humidity Wind Chill (°F) Heat Index (°F) altimeter (in) sea level (mb) 1 hr 3 hr 6 hr
6 hour
Temperature (ºF) Pressure Precipitation (in)